Location: ???????
(55.3754°N, 39.3545°E)
Time: 09:33:21
(UTC+00:00)

Cosmos 2058 Rocket - Pass Details

Date: 14 April 2026
Orbit: 603 x 633 km, 82.5° (Epoch: 19 May)

Event Time Altitude Azimuth Distance (km) Brightness Sun altitude
Exits shadow 23:33:37 25° 157° (SSE) 1,264 4.3 -19.4°
Maximum altitude 23:35:53 49° 95° (E) 813 3.8 -19.3°
Drops below altitude 10° 23:40:10 10° 21° (NNE) 2,010 6.8 -18.9°
Sets 23:42:27 0° 16° (NNE) 2,916 7.8 -18.7°
